period_start,C,m1,H,J0,J1,J2,J3,J4,J5,JA,JB,JC,JD,JJ,JK,JN,#
2017-10-21 00:00:02,-0.02,0.20,0.00,13.66,16.83,19.94,14.50,46.42,1030.55,2070.73,3517.53,3104.00,3557.01,600.13,624.07,14.37,0000 0000 0000 0000 000000
2017-10-21 00:05:03,-0.01,0.20,0.00,13.67,16.82,19.96,14.60,46.38,1030.41,2070.51,3517.40,3104.00,3557.00,600.34,624.20,14.42,0000 0000 0000 0000 000000
2017-10-21 00:10:04,-0.00,0.20,0.00,13.67,16.82,19.93,14.53,46.35,1030.36,2070.56,3517.25,3104.00,3557.00,599.93,623.68,14.47,0000 0000 0000 0000 000000
2017-10-21 00:15:06,0.00,0.20,0.00,13.69,16.82,19.89,14.59,46.40,1030.36,2070.43,3517.08,3104.00,3557.00,599.89,623.50,14.53,0000 0000 0000 0000 000000
2017-10-21 00:20:07,0.07,0.20,0.00,13.70,16.82,19.91,14.44,46.42,1030.38,2070.71,3516.19,3103.63,3556.64,599.66,623.38,14.58,0000 0000 0000 0000 000000
2017-10-21 00:25:08,0.70,0.22,0.00,13.68,16.82,19.90,14.60,46.45,1030.46,2070.82,3503.58,3097.50,3549.99,600.25,624.05,14.63,0000 0000 0000 0000 000000
2017-10-21 00:30:09,0.38,0.25,0.00,13.69,16.82,19.90,14.54,46.25,1030.54,2070.91,3487.93,3088.90,3540.34,599.86,623.62,14.68,0000 0000 0000 0000 000000
2017-10-21 00:35:10,0.05,0.26,0.00,13.71,16.82,19.91,14.58,46.29,1030.57,2070.77,3485.27,3087.34,3538.99,600.00,623.93,14.73,0000 0000 0000 0000 000000
2017-10-21 00:40:12,0.02,0.26,0.00,13.73,16.82,19.91,14.62,46.33,1030.53,2070.70,3485.00,3087.04,3538.65,600.26,623.94,14.78,0000 0000 0000 0000 000000
2017-10-21 00:45:13,0.03,0.26,0.00,13.76,16.83,19.90,14.53,46.25,1030.34,2070.90,3484.74,3087.00,3538.35,599.89,623.42,14.83,0000 0000 0000 0000 000000
2017-10-21 00:50:14,0.01,0.26,0.00,13.79,16.84,19.91,14.56,46.37,1030.32,2070.87,3484.08,3087.00,3538.06,599.97,623.42,14.88,0000 0000 0000 0000 000000
2017-10-21 00:55:16,0.00,0.26,0.00,13.85,16.86,19.92,14.52,46.26,1030.29,2070.86,3484.00,3086.96,3538.00,599.84,623.23,14.93,0000 0000 0000 0000 000000
2017-10-21 01:00:17,0.01,0.26,0.00,13.90,16.87,19.93,14.60,46.39,1030.29,2070.65,3483.62,3086.51,3537.97,600.38,623.65,14.98,0000 0000 0000 0000 000000
2017-10-21 01:05:18,0.03,0.26,0.00,13.92,16.89,20.00,14.58,46.41,1030.29,2070.90,3483.05,3086.12,3537.97,600.06,623.21,15.03,0000 0000 0000 0000 000000
2017-10-21 01:10:19,-0.00,0.26,0.00,13.93,16.89,19.97,14.48,46.29,1030.29,2070.79,3483.00,3086.02,3537.74,599.68,622.85,15.08,0000 0000 0000 0000 000000
2017-10-21 01:15:21,-0.04,0.26,0.00,13.95,16.91,19.97,14.57,46.28,1030.29,2070.30,3483.00,3086.01,3537.10,600.16,623.15,15.13,0000 0000 0000 0000 000000
2017-10-21 01:20:22,-0.01,0.26,0.00,13.97,16.92,20.03,14.56,46.36,1030.29,2070.15,3482.97,3086.00,3537.01,599.71,622.79,15.18,0000 0000 0000 0000 000000
2017-10-21 01:25:23,0.01,0.26,0.00,13.97,16.94,20.03,14.58,46.38,1030.29,2070.15,3482.66,3085.98,3537.00,600.04,623.12,15.23,0000 0000 0000 0000 000000
2017-10-21 01:30:24,-0.00,0.26,0.00,13.99,16.94,20.09,14.54,46.34,1030.29,2070.10,3482.07,3085.94,3537.00,600.05,623.01,15.28,0000 0000 0000 0000 000000
2017-10-21 01:35:25,0.01,0.26,0.00,14.01,16.97,20.04,14.57,46.38,1030.29,2070.07,3482.00,3085.65,3536.97,600.20,622.96,15.33,0000 0000 0000 0000 000000
2017-10-21 01:40:27,0.01,0.26,0.00,14.04,16.97,20.06,14.55,46.40,1030.29,2070.12,3481.98,3085.20,3536.97,600.27,623.22,15.38,0000 0000 0000 0000 000000
2017-10-21 01:45:28,0.01,0.26,0.00,14.07,16.99,20.11,14.57,46.52,1030.29,2070.05,3481.97,3085.01,3536.30,600.10,622.95,15.43,0000 0000 0000 0000 000000
2017-10-21 01:50:30,-0.00,0.26,0.00,14.09,17.00,20.09,14.55,46.48,1030.27,2070.01,3481.96,3085.00,3536.01,600.07,623.00,15.48,0000 0000 0000 0000 000000
2017-10-21 01:55:31,0.01,0.26,0.00,14.11,17.02,20.14,14.55,46.48,1030.22,2070.00,3481.64,3084.99,3535.97,600.21,622.95,15.53,0000 0000 0000 0000 000000
2017-10-21 02:00:32,0.02,0.26,0.00,14.14,17.04,20.14,14.49,46.45,1030.27,2070.00,3481.02,3084.64,3535.77,599.84,622.59,15.58,0000 0000 0000 0000 000000
2017-10-21 02:05:33,0.03,0.27,0.00,14.16,17.05,20.16,14.58,46.35,1030.21,2070.00,3480.66,3084.03,3535.09,600.09,622.74,15.63,0000 0000 0000 0000 000000
2017-10-21 02:10:35,0.00,0.27,0.00,14.17,17.07,20.16,14.54,46.29,1030.16,2069.99,3480.05,3083.99,3535.00,600.10,622.68,15.68,0000 0000 0000 0000 000000
2017-10-21 02:15:36,0.01,0.27,0.00,14.20,17.09,20.15,14.47,46.24,1030.24,2069.98,3480.02,3083.93,3534.75,599.93,622.44,15.73,0000 0000 0000 0000 000000
2017-10-21 02:20:37,0.02,0.27,0.00,14.23,17.11,20.18,14.55,46.26,1030.23,2069.95,3479.99,3083.25,3534.05,599.91,622.37,15.78,0000 0000 0000 0000 000000
2017-10-21 02:25:38,0.01,0.27,0.00,14.27,17.13,20.19,14.58,46.25,1030.21,2069.94,3479.46,3083.00,3534.00,600.18,622.49,15.83,0000 0000 0000 0000 000000
2017-10-21 02:30:40,0.00,0.27,0.00,14.29,17.14,20.23,14.53,46.34,1030.10,2069.97,3479.09,3082.99,3533.98,600.03,622.22,15.88,0000 0000 0000 0000 000000
2017-10-21 02:35:41,-0.00,0.27,0.00,14.31,17.17,20.24,14.49,46.34,1030.23,2069.94,3479.00,3082.94,3533.83,599.97,622.27,15.93,0000 0000 0000 0000 000000
2017-10-21 02:40:42,-0.01,0.27,0.00,14.34,17.19,20.29,14.50,46.48,1030.25,2069.72,3479.00,3082.50,3533.23,600.20,622.44,15.98,0000 0000 0000 0000 000000
2017-10-21 02:45:44,-0.03,0.27,0.00,14.37,17.22,20.30,14.47,46.33,1030.25,2069.17,3478.95,3082.04,3532.97,599.91,622.12,16.03,0000 0000 0000 0000 000000
2017-10-21 02:50:45,0.01,0.27,0.00,14.41,17.24,20.31,14.56,46.28,1030.22,2069.07,3478.14,3081.99,3532.79,600.24,622.31,16.08,0000 0000 0000 0000 000000
2017-10-21 02:55:46,0.02,0.27,0.00,14.44,17.28,20.34,14.54,46.33,1030.14,2069.05,3477.93,3081.68,3532.09,600.02,621.95,16.13,0000 0000 0000 0000 000000
2017-10-21 03:00:48,0.01,0.27,0.00,14.47,17.30,20.37,14.43,46.30,1030.13,2069.03,3477.28,3081.07,3532.00,599.95,621.82,16.18,0000 0000 0000 0000 000000
2017-10-21 03:05:49,0.00,0.27,0.00,14.50,17.33,20.38,14.61,46.33,1030.20,2069.01,3477.00,3081.00,3531.78,600.13,622.00,16.23,0000 0000 0000 0000 000000
2017-10-21 03:10:50,0.02,0.27,0.00,14.52,17.36,20.41,14.48,46.33,1030.21,2069.00,3476.58,3080.81,3531.05,599.68,621.58,16.28,0000 0000 0000 0000 000000
2017-10-21 03:15:52,0.02,0.27,0.00,14.56,17.39,20.43,14.51,46.33,1030.23,2069.00,3476.02,3080.13,3530.89,599.95,621.62,16.33,0000 0000 0000 0000 000000
2017-10-21 03:20:53,0.01,0.27,0.00,14.59,17.42,20.46,14.50,46.26,1030.24,2068.97,3476.00,3080.00,3530.10,599.71,621.37,16.38,0000 0000 0000 0000 000000
2017-10-21 03:25:54,0.00,0.27,0.00,14.62,17.45,20.49,14.46,46.33,1030.18,2068.93,3475.65,3079.95,3530.00,599.96,621.60,16.43,0000 0000 0000 0000 000000
2017-10-21 03:30:55,-0.00,0.27,0.00,14.66,17.48,20.49,14.55,46.23,1030.19,2068.64,3475.03,3079.24,3529.95,600.53,622.07,16.48,0000 0000 0000 0000 000000
2017-10-21 03:35:56,-0.01,0.27,0.00,14.69,17.50,20.55,14.44,46.33,1030.27,2068.35,3474.91,3079.01,3529.36,599.56,621.13,16.53,0000 0000 0000 0000 000000
2017-10-21 03:40:58,-0.01,0.27,0.00,14.74,17.53,20.57,14.43,46.29,1030.28,2068.04,3474.65,3079.00,3529.01,599.83,621.19,16.58,0000 0000 0000 0000 000000
2017-10-21 03:45:59,0.00,0.27,0.00,14.77,17.56,20.59,14.45,46.17,1030.29,2068.01,3474.12,3078.94,3528.99,599.94,621.09,16.63,0000 0000 0000 0000 000000
2017-10-21 03:51:01,0.02,0.27,0.00,14.81,17.58,20.62,14.50,46.21,1030.29,2068.00,3474.00,3078.48,3528.80,599.97,621.24,16.68,0000 0000 0000 0000 000000
2017-10-21 03:56:02,0.02,0.28,0.00,14.87,17.62,20.65,14.53,46.13,1030.28,2068.00,3473.75,3078.04,3528.12,600.10,621.17,16.73,0000 0000 0000 0000 000000
2017-10-21 04:01:04,0.00,0.28,0.00,14.93,17.65,20.70,14.49,46.25,1030.29,2068.00,3473.24,3078.00,3528.03,600.33,621.34,16.78,0000 0000 0000 0000 000000
2017-10-21 04:06:05,0.00,0.28,0.00,14.97,17.68,20.70,14.45,46.26,1030.27,2067.99,3473.01,3077.97,3528.00,600.01,620.85,16.83,0000 0000 0000 0000 000000
2017-10-21 04:11:06,0.00,0.28,0.00,15.00,17.71,20.74,14.40,46.17,1030.29,2067.97,3472.99,3077.79,3527.95,599.73,620.57,16.88,0000 0000 0000 0000 000000
2017-10-21 04:16:07,0.03,0.28,0.00,15.03,17.75,20.76,14.44,46.27,1030.29,2067.98,3472.41,3077.16,3527.68,600.10,620.82,16.93,0000 0000 0000 0000 000000
2017-10-21 04:21:08,-0.02,0.28,0.00,15.04,17.78,20.83,14.42,46.28,1030.28,2067.80,3472.03,3077.00,3527.04,599.98,620.76,16.98,0000 0000 0000 0000 000000
2017-10-21 04:26:10,-0.04,0.28,0.00,15.07,17.81,20.84,14.44,46.28,1030.29,2067.15,3472.00,3076.97,3526.84,599.85,620.53,17.03,0000 0000 0000 0000 000000
2017-10-21 04:31:11,0.02,0.28,0.00,15.08,17.85,20.89,14.52,46.33,1030.29,2067.02,3471.97,3076.55,3526.15,600.04,620.84,17.08,0000 0000 0000 0000 000000
2017-10-21 04:36:13,0.01,0.28,0.00,15.11,17.88,20.91,14.49,46.23,1030.29,2067.01,3471.81,3076.11,3526.02,599.93,620.46,17.13,0000 0000 0000 0000 000000
2017-10-21 04:41:14,0.01,0.28,0.00,15.13,17.92,20.95,14.48,46.18,1030.29,2067.00,3471.43,3076.01,3525.97,600.17,620.69,17.18,0000 0000 0000 0000 000000
2017-10-21 04:46:15,0.01,0.28,0.00,15.15,17.95,20.98,14.57,46.23,1030.29,2066.98,3471.04,3076.00,3525.73,600.31,620.82,17.24,0000 0000 0000 0000 000000
2017-10-21 04:51:16,0.00,0.28,0.00,15.17,17.98,21.00,14.47,46.27,1030.28,2066.96,3471.00,3075.94,3525.12,600.06,620.51,17.29,0000 0000 0000 0000 000000
2017-10-21 04:56:18,0.00,0.28,0.00,15.18,18.00,21.04,14.44,46.17,1030.28,2066.82,3470.87,3075.48,3525.00,599.70,620.13,17.34,0000 0000 0000 0000 000000
2017-10-21 05:01:19,-0.03,0.28,0.00,15.19,18.03,21.06,14.45,46.22,1030.29,2066.28,3470.28,3075.04,3524.94,599.99,620.39,17.39,0000 0000 0000 0000 000000
2017-10-21 05:06:20,0.01,0.28,0.00,15.21,18.05,21.09,14.42,46.08,1030.29,2066.04,3470.01,3075.00,3524.42,599.98,620.37,17.44,0000 0000 0000 0000 000000
2017-10-21 05:11:22,-0.00,0.28,0.00,15.24,18.08,21.13,14.44,46.19,1030.29,2066.01,3469.98,3074.99,3524.10,600.21,620.54,17.49,0000 0000 0000 0000 000000
2017-10-21 05:16:23,0.01,0.28,0.00,15.26,18.10,21.13,14.43,46.10,1030.29,2066.00,3469.60,3074.81,3524.00,600.15,620.42,17.54,0000 0000 0000 0000 000000
2017-10-21 05:21:24,0.02,0.28,0.00,15.26,18.13,21.15,14.53,46.27,1030.29,2066.00,3469.02,3074.16,3523.98,600.24,620.46,17.59,0000 0000 0000 0000 000000
2017-10-21 05:26:26,0.00,0.28,0.00,15.27,18.15,21.21,14.47,46.13,1030.29,2066.00,3469.00,3074.02,3523.85,600.02,620.28,17.64,0000 0000 0000 0000 000000
2017-10-21 05:31:26,0.01,0.28,0.00,15.29,18.17,21.30,14.41,46.31,1030.29,2065.99,3469.00,3074.00,3523.37,599.74,620.14,17.69,0000 0000 0000 0000 000000
2017-10-21 05:36:28,0.01,0.28,0.00,15.30,18.19,21.29,14.48,46.25,1030.29,2065.97,3468.52,3073.99,3523.02,600.14,620.39,17.74,0000 0000 0000 0000 000000
2017-10-21 05:41:29,0.00,0.28,0.00,15.30,18.21,21.29,14.41,46.27,1030.29,2065.97,3468.06,3073.88,3522.98,599.79,620.08,17.79,0000 0000 0000 0000 000000
2017-10-21 05:46:30,0.01,0.28,0.00,15.33,18.23,21.34,14.44,46.19,1030.29,2065.94,3468.00,3073.43,3522.98,599.77,619.99,17.84,0000 0000 0000 0000 000000
2017-10-21 05:51:31,-0.00,0.28,0.00,15.34,18.25,21.31,14.46,46.14,1030.29,2065.83,3468.00,3073.08,3522.76,599.84,619.86,17.89,0000 0000 0000 0000 000000
2017-10-21 05:56:33,-0.01,0.28,0.00,15.35,18.27,21.35,14.50,46.09,1030.29,2065.54,3467.78,3073.01,3522.29,599.97,620.02,17.94,0000 0000 0000 0000 000000
2017-10-21 06:01:34,-0.02,0.28,0.00,15.37,18.29,21.35,14.56,46.27,1030.30,2065.19,3467.42,3073.00,3522.01,600.16,620.25,17.99,0000 0000 0000 0000 000000
2017-10-21 06:06:36,-0.01,0.28,0.00,15.37,18.31,21.34,14.55,46.23,1030.30,2065.02,3467.58,3072.99,3521.95,600.48,620.55,18.04,0000 0000 0000 0000 000000
2017-10-21 06:11:37,0.01,0.28,0.00,15.38,18.33,21.40,14.44,46.07,1030.29,2065.00,3467.04,3072.79,3521.66,600.13,620.24,18.09,0000 0000 0000 0000 000000
2017-10-21 06:16:38,0.02,0.28,0.00,15.38,18.35,21.47,14.49,46.18,1030.29,2065.00,3466.99,3072.29,3521.14,600.08,620.14,18.14,0000 0000 0000 0000 000000
2017-10-21 06:21:40,0.01,0.28,0.00,15.39,18.37,21.47,14.46,46.21,1030.29,2065.00,3466.68,3072.04,3521.03,599.68,619.53,18.19,0000 0000 0000 0000 000000
2017-10-21 06:26:41,0.00,0.28,0.00,15.40,18.39,21.47,14.52,46.20,1030.29,2065.00,3466.03,3071.99,3521.00,599.95,619.83,18.24,0000 0000 0000 0000 000000
2017-10-21 06:31:42,0.00,0.28,0.00,15.42,18.41,21.47,14.47,46.12,1030.29,2065.00,3465.97,3071.95,3520.98,600.03,619.81,18.29,0000 0000 0000 0000 000000
2017-10-21 06:36:43,0.03,0.28,0.00,15.43,18.42,21.47,14.40,46.13,1030.29,2064.99,3465.23,3071.41,3520.78,599.81,619.64,18.34,0000 0000 0000 0000 000000
2017-10-21 06:41:44,0.01,0.28,0.00,15.43,18.44,21.50,14.44,46.09,1030.29,2064.99,3465.02,3071.04,3520.07,600.03,619.81,18.39,0000 0000 0000 0000 000000
2017-10-21 06:46:46,0.00,0.28,0.00,15.44,18.46,21.51,14.45,46.09,1030.29,2064.98,3464.98,3071.00,3519.99,599.97,619.71,18.44,0000 0000 0000 0000 000000
2017-10-21 06:51:47,0.00,0.28,0.00,15.44,18.47,21.51,14.47,46.18,1030.29,2064.95,3464.75,3071.00,3519.85,600.09,619.97,18.49,0000 0000 0000 0000 000000
2017-10-21 06:56:49,0.01,0.28,0.00,15.46,18.49,21.55,14.44,46.17,1030.29,2064.90,3464.16,3070.97,3519.44,600.01,619.82,18.54,0000 0000 0000 0000 000000
2017-10-21 07:01:50,0.00,0.28,0.00,15.44,18.49,21.58,14.50,46.12,1030.29,2064.86,3464.01,3070.88,3519.12,600.27,620.15,18.59,0000 0000 0000 0000 000000
2017-10-21 07:06:51,-0.04,0.28,0.00,15.45,18.51,21.58,14.43,46.09,1030.29,2064.37,3464.01,3070.52,3519.00,599.86,619.65,18.64,0000 0000 0000 0000 000000
2017-10-21 07:11:52,-0.01,0.28,0.00,15.46,18.52,21.58,14.47,46.13,1030.29,2064.07,3464.00,3070.37,3519.00,599.85,619.68,18.69,0000 0000 0000 0000 000000
2017-10-21 07:16:54,0.00,0.28,0.00,15.47,18.52,21.58,14.43,46.16,1030.29,2064.03,3464.00,3070.18,3518.99,599.93,619.71,18.74,0000 0000 0000 0000 000000
2017-10-21 07:21:55,0.00,0.28,0.00,15.46,18.53,21.60,14.44,46.17,1030.29,2064.01,3463.99,3070.04,3518.98,599.96,619.82,18.79,0000 0000 0000 0000 000000
2017-10-21 07:26:56,0.01,0.28,0.00,15.47,18.54,21.61,14.46,46.08,1030.29,2064.03,3463.69,3070.01,3518.99,599.92,619.77,18.84,0000 0000 0000 0000 000000
2017-10-21 07:31:57,0.01,0.28,0.00,15.48,18.54,21.63,14.35,45.92,1030.29,2064.05,3463.16,3070.00,3518.98,599.91,619.69,18.89,0000 0000 0000 0000 000000
2017-10-21 07:36:58,0.01,0.28,0.00,15.47,18.54,21.62,14.56,46.24,1030.29,2064.02,3463.09,3070.00,3518.51,600.30,620.13,18.94,0000 0000 0000 0000 000000
2017-10-21 07:42:00,0.00,0.28,0.00,15.47,18.54,21.66,14.52,46.08,1030.29,2064.01,3463.11,3069.99,3518.19,600.31,620.16,18.99,0000 0000 0000 0000 000000
2017-10-21 07:47:01,0.00,0.28,0.00,15.48,18.55,21.63,14.53,46.08,1030.29,2064.02,3463.03,3069.99,3518.35,600.39,620.25,19.04,0000 0000 0000 0000 000000
2017-10-21 07:52:02,0.00,0.28,0.00,15.47,18.56,21.65,14.46,46.05,1030.29,2064.01,3462.98,3069.98,3518.13,599.89,619.72,19.09,0000 0000 0000 0000 000000
2017-10-21 07:57:03,0.00,0.28,0.00,15.46,18.57,21.66,14.52,46.11,1030.29,2064.02,3462.95,3069.93,3518.06,600.18,620.02,19.14,0000 0000 0000 0000 000000
2017-10-21 08:02:04,0.00,0.28,0.00,15.46,18.57,21.67,14.54,46.21,1030.29,2064.00,3462.96,3069.88,3518.00,600.11,619.95,19.19,0000 0000 0000 0000 000000
2017-10-21 08:07:05,0.00,0.28,0.00,15.45,18.57,21.67,14.47,46.23,1030.29,2064.00,3462.98,3069.84,3517.99,600.03,619.97,19.24,0000 0000 0000 0000 000000
2017-10-21 08:12:07,0.01,0.28,0.00,15.44,18.57,21.69,14.44,46.11,1030.29,2064.00,3462.95,3069.74,3517.99,599.69,619.64,19.29,0000 0000 0000 0000 000000
2017-10-21 08:17:08,0.00,0.28,0.00,15.44,18.57,21.69,14.51,46.20,1030.29,2064.00,3462.91,3069.62,3517.99,600.09,620.03,19.34,0000 0000 0000 0000 000000
2017-10-21 08:22:09,0.01,0.28,0.00,15.45,18.57,21.66,14.41,46.07,1030.28,2064.00,3462.44,3069.48,3517.99,599.79,619.65,19.39,0000 0000 0000 0000 000000
2017-10-21 08:27:10,-0.01,0.28,0.00,15.45,18.57,21.68,14.41,46.15,1030.27,2064.00,3462.74,3069.52,3517.99,599.99,619.83,19.44,0000 0000 0000 0000 000000
2017-10-21 08:32:12,0.02,0.29,0.00,15.44,18.57,21.67,14.47,46.24,1030.25,2064.00,3462.27,3069.26,3517.98,599.79,619.50,19.49,0000 0000 0000 0000 000000
2017-10-21 08:37:13,0.00,0.29,0.00,15.44,18.57,21.67,14.48,46.05,1030.21,2064.00,3462.10,3069.17,3517.96,599.93,619.67,19.54,0000 0000 0000 0000 000000
2017-10-21 08:42:15,0.00,0.29,0.00,15.44,18.57,21.69,14.43,46.06,1030.17,2064.00,3462.04,3069.07,3517.87,599.72,619.51,19.59,0000 0000 0000 0000 000000
2017-10-21 08:47:16,0.00,0.29,0.00,15.43,18.57,21.65,14.44,45.96,1030.20,2064.00,3462.00,3069.02,3517.93,599.67,619.67,19.64,0000 0000 0000 0000 000000
2017-10-21 08:52:17,0.01,0.29,0.00,15.42,18.57,21.69,14.48,46.02,1030.12,2064.00,3461.99,3069.01,3517.57,600.05,619.88,19.69,0000 0000 0000 0000 000000
2017-10-21 08:57:19,0.00,0.29,0.00,15.42,18.57,21.69,14.47,46.13,1030.11,2064.00,3461.99,3069.01,3517.09,599.97,619.80,19.74,0000 0000 0000 0000 000000
2017-10-21 09:02:20,0.00,0.29,0.00,15.42,18.57,21.67,14.47,46.00,1030.11,2063.99,3461.99,3069.01,3517.01,600.23,620.14,19.79,0000 0000 0000 0000 000000
2017-10-21 09:07:21,0.00,0.29,0.00,15.42,18.57,21.65,14.48,46.17,1030.09,2063.99,3461.98,3069.00,3517.01,599.98,619.50,19.84,0000 0000 0000 0000 000000
2017-10-21 09:12:23,0.00,0.29,0.00,15.42,18.57,21.66,14.45,46.02,1029.97,2063.99,3461.95,3069.00,3517.02,599.85,619.44,19.89,0000 0000 0000 0000 000000
2017-10-21 09:17:24,0.00,0.29,0.00,15.41,18.57,21.67,14.46,45.99,1029.91,2063.99,3461.71,3069.00,3517.01,600.08,619.86,19.94,0000 0000 0000 0000 000000
2017-10-21 09:22:25,0.00,0.29,0.00,15.42,18.57,21.65,14.45,46.02,1029.86,2063.99,3461.13,3069.00,3517.00,600.02,619.75,19.99,0000 0000 0000 0000 000000
2017-10-21 09:27:27,0.00,0.29,0.00,15.41,18.57,21.69,14.48,45.92,1029.82,2063.99,3461.05,3069.00,3517.00,600.11,619.89,20.04,0000 0000 0000 0000 000000
2017-10-21 09:32:28,0.00,0.29,0.00,15.39,18.57,21.67,14.51,46.04,1029.82,2063.99,3461.02,3068.98,3517.00,599.91,619.62,20.09,0000 0000 0000 0000 000000
2017-10-21 09:37:29,0.00,0.29,0.00,15.40,18.57,21.69,14.40,46.02,1029.81,2063.99,3461.02,3068.98,3517.00,600.00,619.63,20.15,0000 0000 0000 0000 000000
2017-10-21 09:42:31,0.00,0.29,0.00,15.40,18.57,21.67,14.48,46.06,1029.80,2063.99,3461.00,3068.98,3516.98,599.76,619.43,20.20,0000 0000 0000 0000 000000
2017-10-21 09:47:32,0.00,0.29,0.00,15.38,18.57,21.68,14.49,45.97,1029.80,2063.99,3461.00,3068.98,3516.97,599.86,619.61,20.25,0000 0000 0000 0000 000000
2017-10-21 09:52:34,0.00,0.29,0.00,15.38,18.57,21.66,14.49,45.98,1029.80,2063.99,3461.00,3068.97,3516.98,600.17,619.65,20.30,0000 0000 0000 0000 000000
2017-10-21 09:57:35,0.00,0.29,0.00,15.37,18.57,21.65,14.44,45.97,1029.80,2063.99,3460.98,3068.89,3516.97,600.06,619.68,20.35,0000 0000 0000 0000 000000
2017-10-21 10:02:36,0.00,0.29,0.00,15.36,18.57,21.67,14.52,46.10,1029.80,2063.99,3460.97,3068.74,3516.82,600.09,619.78,20.40,0000 0000 0000 0000 000000
2017-10-21 10:07:37,0.02,0.29,0.00,15.34,18.56,21.67,14.40,45.90,1029.80,2063.99,3460.68,3068.34,3516.39,599.87,619.57,20.45,0000 0000 0000 0000 000000
2017-10-21 10:12:39,0.01,0.29,0.00,15.34,18.55,21.66,14.44,46.07,1029.78,2063.99,3460.27,3068.18,3516.42,599.84,619.77,20.50,0000 0000 0000 0000 000000
2017-10-21 10:17:39,0.00,0.29,0.00,15.33,18.55,21.67,14.45,46.08,1029.79,2064.00,3460.11,3068.20,3516.71,599.61,619.39,20.55,0000 0000 0000 0000 000000
2017-10-21 10:22:40,0.00,0.29,0.00,15.34,18.54,21.64,14.47,45.96,1029.76,2064.01,3460.01,3068.09,3516.86,599.91,619.66,20.60,0000 0000 0000 0000 000000
2017-10-21 10:27:42,0.01,0.29,0.00,15.34,18.54,21.68,14.55,46.10,1029.65,2064.02,3460.00,3068.04,3516.61,600.10,619.76,20.65,0000 0000 0000 0000 000000
2017-10-21 10:32:43,-0.00,0.29,0.00,15.33,18.54,21.66,14.47,46.10,1029.56,2064.02,3460.00,3068.13,3516.63,599.76,619.43,20.70,0000 0000 0000 0000 000000
2017-10-21 10:37:44,0.00,0.29,0.00,15.32,18.54,21.65,14.49,45.92,1029.49,2064.01,3460.00,3068.06,3516.42,600.25,619.82,20.75,0000 0000 0000 0000 000000
2017-10-21 10:42:46,0.00,0.29,0.00,15.32,18.54,21.65,14.42,46.05,1029.37,2064.02,3460.00,3068.06,3516.36,600.18,619.80,20.80,0000 0000 0000 0000 000000
2017-10-21 10:47:47,0.00,0.29,0.00,15.29,18.54,21.64,14.57,46.02,1029.34,2064.03,3460.00,3068.08,3516.14,600.54,620.15,20.85,0000 0000 0000 0000 000000
2017-10-21 10:52:48,0.00,0.29,0.00,15.29,18.54,21.65,14.51,46.07,1029.35,2064.05,3459.99,3068.03,3516.38,600.37,619.93,20.90,0000 0000 0000 0000 000000
2017-10-21 10:57:50,0.00,0.29,0.00,15.29,18.53,21.67,14.46,45.99,1029.32,2064.07,3459.98,3068.02,3516.14,600.19,619.91,20.95,0000 0000 0000 0000 000000
2017-10-21 11:02:51,0.00,0.29,0.00,15.28,18.52,21.63,14.42,46.03,1029.32,2064.05,3459.81,3068.01,3516.07,600.09,619.92,21.00,0000 0000 0000 0000 000000
2017-10-21 11:07:53,0.02,0.29,0.00,15.27,18.52,21.62,14.47,46.10,1029.32,2064.12,3459.20,3068.00,3516.06,600.04,619.70,21.05,0000 0000 0000 0000 000000
2017-10-21 11:12:54,0.02,0.29,0.00,15.27,18.52,21.63,14.50,46.17,1029.31,2064.40,3459.01,3068.00,3516.05,600.10,619.79,21.10,0000 0000 0000 0000 000000
2017-10-21 11:17:55,-0.03,0.29,0.00,15.27,18.52,21.61,14.47,46.11,1029.31,2064.20,3459.01,3068.00,3516.00,599.87,619.33,21.15,0000 0000 0000 0000 000000
2017-10-21 11:22:57,0.00,0.29,0.00,15.26,18.52,21.61,14.44,46.11,1029.30,2064.11,3459.00,3068.00,3516.00,600.16,619.73,21.20,0000 0000 0000 0000 000000
2017-10-21 11:27:58,-0.01,0.29,0.00,15.26,18.52,21.59,14.55,46.27,1029.21,2064.13,3459.00,3067.99,3516.00,600.27,619.88,21.25,0000 0000 0000 0000 000000
2017-10-21 11:32:59,0.00,0.29,0.00,15.25,18.52,21.56,14.52,46.19,1029.25,2064.12,3458.99,3067.99,3516.00,600.12,619.79,21.30,0000 0000 0000 0000 000000
2017-10-21 11:38:00,0.00,0.29,0.00,15.23,18.51,21.58,14.44,46.12,1029.14,2064.10,3458.99,3067.99,3515.99,600.07,619.64,21.35,0000 0000 0000 0000 000000
2017-10-21 11:43:02,0.01,0.29,0.00,15.23,18.50,21.58,14.48,46.13,1029.02,2064.16,3458.98,3067.97,3515.98,599.85,619.31,21.40,0000 0000 0000 0000 000000
2017-10-21 11:48:03,0.01,0.29,0.00,15.23,18.49,21.57,14.47,46.24,1029.07,2064.34,3458.91,3067.97,3515.96,599.83,619.40,21.45,0000 0000 0000 0000 000000
2017-10-21 11:53:04,-0.03,0.29,0.00,15.24,18.49,21.61,14.46,46.17,1028.93,2064.09,3458.98,3067.97,3515.96,599.95,619.47,21.50,0000 0000 0000 0000 000000
2017-10-21 11:58:05,0.01,0.29,0.00,15.23,18.49,21.57,14.47,46.17,1028.83,2064.13,3458.96,3067.97,3515.96,599.85,619.33,21.55,0000 0000 0000 0000 000000
2017-10-21 12:03:06,0.02,0.29,0.00,15.24,18.49,21.54,14.43,46.11,1028.83,2064.24,3458.72,3067.95,3515.93,600.00,619.47,21.60,0000 0000 0000 0000 000000
2017-10-21 12:08:08,0.02,0.29,0.00,15.24,18.48,21.59,14.52,46.18,1028.83,2064.47,3458.58,3067.96,3515.83,599.94,619.36,21.65,0000 0000 0000 0000 000000
2017-10-21 12:13:09,-0.03,0.29,0.00,15.23,18.47,21.58,14.52,46.28,1028.83,2064.20,3458.59,3067.96,3515.71,600.04,619.56,21.70,0000 0000 0000 0000 000000
2017-10-21 12:18:10,0.04,0.29,0.00,15.22,18.47,21.54,14.54,46.24,1028.83,2064.59,3458.04,3067.91,3515.94,599.94,619.33,21.75,0000 0000 0000 0000 000000
2017-10-21 12:23:11,0.01,0.30,0.00,15.22,18.47,21.55,14.56,46.19,1028.83,2064.80,3458.14,3067.96,3515.89,600.20,619.68,21.80,0000 0000 0000 0000 000000
2017-10-21 12:28:12,0.01,0.30,0.00,15.21,18.46,21.57,14.47,46.17,1028.83,2064.82,3458.03,3067.93,3515.95,599.96,619.43,21.85,0000 0000 0000 0000 000000
2017-10-21 12:33:14,0.01,0.30,0.00,15.19,18.45,21.56,14.58,46.21,1028.83,2064.94,3458.00,3067.82,3515.92,600.38,619.87,21.90,0000 0000 0000 0000 000000
2017-10-21 12:38:15,0.00,0.30,0.00,15.19,18.44,21.52,14.48,46.19,1028.82,2064.98,3458.01,3067.92,3515.95,600.17,619.59,21.95,0000 0000 0000 0000 000000
2017-10-21 12:43:16,0.00,0.30,0.00,15.19,18.44,21.50,14.52,46.14,1028.76,2064.98,3457.99,3067.85,3515.96,600.23,619.57,22.00,0000 0000 0000 0000 000000
2017-10-21 12:48:18,0.01,0.30,0.00,15.19,18.44,21.51,14.48,46.34,1028.55,2064.98,3458.00,3067.67,3515.60,599.81,619.13,22.05,0000 0000 0000 0000 000000
2017-10-21 12:53:19,-0.00,0.30,0.00,15.20,18.44,21.52,14.43,46.27,1028.47,2064.97,3457.99,3067.73,3515.44,599.83,619.16,22.10,0000 0000 0000 0000 000000